TimePDT,TemperatureF,Dew PointF,Humidity,Sea Level PressureIn,VisibilityMPH,Wind Direction,Wind SpeedMPH,Gust SpeedMPH,PrecipitationIn,Events,Conditions,WindDirDegrees,DateUTC
12:15 AM,37.4,35.6,93,30.08,5.0,SSW,3.5,-,N/A,,Overcast,210,2012-10-27 07:15:00
12:35 AM,37.4,35.6,93,30.07,5.0,South,4.6,-,N/A,,Overcast,190,2012-10-27 07:35:00
12:55 AM,37.4,35.6,93,30.06,5.0,SSW,5.8,-,0.01,,Overcast,200,2012-10-27 07:55:00
1:35 AM,37.4,35.6,93,30.06,4.0,Calm,Calm,-,N/A,,Overcast,0,2012-10-27 08:35:00
1:55 AM,35.6,35.6,100,30.06,3.0,Calm,Calm,-,N/A,,Overcast,0,2012-10-27 08:55:00
2:15 AM,35.6,33.8,93,30.06,3.0,Calm,Calm,-,N/A,,Overcast,0,2012-10-27 09:15:00
2:35 AM,37.4,35.6,93,30.06,5.0,SSW,5.8,-,N/A,,Overcast,210,2012-10-27 09:35:00
2:55 AM,37.4,35.6,93,30.06,6.0,SSW,8.1,-,0.01,,Overcast,200,2012-10-27 09:55:00
3:15 AM,37.4,35.6,93,30.06,8.0,South,6.9,-,N/A,,Overcast,190,2012-10-27 10:15:00
3:35 AM,37.4,35.6,93,30.06,10.0,SSW,3.5,-,N/A,,Overcast,200,2012-10-27 10:35:00
3:55 AM,37.4,35.6,93,30.05,10.0,South,6.9,-,N/A,,Overcast,180,2012-10-27 10:55:00
4:15 AM,37.4,35.6,93,30.05,10.0,South,5.8,-,N/A,,Overcast,180,2012-10-27 11:15:00
4:55 AM,37.4,35.6,93,30.05,10.0,SSW,6.9,-,N/A,,Overcast,200,2012-10-27 11:55:00
5:15 AM,37.4,35.6,93,30.05,10.0,SSW,5.8,-,N/A,,Overcast,210,2012-10-27 12:15:00
5:35 AM,37.4,35.6,93,30.04,10.0,South,4.6,-,N/A,,Overcast,190,2012-10-27 12:35:00
5:55 AM,37.4,35.6,93,30.05,10.0,Calm,Calm,-,N/A,,Overcast,0,2012-10-27 12:55:00
6:15 AM,37.4,35.6,93,30.05,10.0,Calm,Calm,-,N/A,,Overcast,0,2012-10-27 13:15:00
6:35 AM,37.4,35.6,93,30.05,10.0,Calm,Calm,-,N/A,,Overcast,0,2012-10-27 13:35:00
7:15 AM,39.2,37.4,93,30.05,10.0,Calm,Calm,-,N/A,,Overcast,0,2012-10-27 14:15:00
7:35 AM,39.2,35.6,87,30.05,10.0,Calm,Calm,-,N/A,,Overcast,0,2012-10-27 14:35:00
7:55 AM,39.2,37.4,93,30.05,10.0,Calm,Calm,-,N/A,,Overcast,0,2012-10-27 14:55:00
8:35 AM,39.2,37.4,93,30.05,10.0,Calm,Calm,-,N/A,,Overcast,0,2012-10-27 15:35:00
8:55 AM,39.2,37.4,93,30.05,10.0,Calm,Calm,-,N/A,,Overcast,0,2012-10-27 15:55:00
9:15 AM,39.2,37.4,93,30.05,10.0,Calm,Calm,-,N/A,,Overcast,0,2012-10-27 16:15:00
9:35 AM,39.2,37.4,93,30.05,10.0,Calm,Calm,-,N/A,,Overcast,0,2012-10-27 16:35:00
9:55 AM,39.2,37.4,93,30.04,10.0,Calm,Calm,-,N/A,,Overcast,0,2012-10-27 16:55:00
10:15 AM,39.2,39.2,100,30.04,10.0,Calm,Calm,-,N/A,,Overcast,0,2012-10-27 17:15:00
10:35 AM,41.0,39.2,93,30.04,10.0,SSW,5.8,-,N/A,,Overcast,200,2012-10-27 17:35:00
10:55 AM,42.8,39.2,87,30.04,10.0,SSW,9.2,-,N/A,,Overcast,200,2012-10-27 17:55:00
11:15 AM,42.8,39.2,87,30.04,10.0,WSW,4.6,-,N/A,,Overcast,240,2012-10-27 18:15:00
11:35 AM,41.0,39.2,93,30.03,10.0,NW,4.6,-,N/A,,Overcast,310,2012-10-27 18:35:00
11:55 AM,41.0,39.2,93,30.04,9.0,West,4.6,-,N/A,,Overcast,280,2012-10-27 18:55:00
12:15 PM,41.0,39.2,93,30.04,10.0,WSW,4.6,-,N/A,,Overcast,250,2012-10-27 19:15:00
12:35 PM,42.8,39.2,87,30.03,8.0,West,3.5,-,N/A,,Overcast,270,2012-10-27 19:35:00
12:55 PM,41.0,39.2,93,30.02,5.0,Calm,Calm,-,N/A,,Overcast,0,2012-10-27 19:55:00
1:15 PM,41.0,39.2,93,30.02,4.0,Calm,Calm,-,N/A,,Overcast,0,2012-10-27 20:15:00
1:35 PM,41.0,39.2,93,30.02,3.0,Calm,Calm,-,0.02,,Overcast,0,2012-10-27 20:35:00
1:55 PM,42.8,39.2,87,30.01,6.0,SW,3.5,-,0.02,,Overcast,220,2012-10-27 20:55:00
2:15 PM,42.8,39.2,87,30.02,6.0,SW,5.8,-,0.01,,Overcast,220,2012-10-27 21:15:00
2:35 PM,42.8,39.2,87,30.02,6.0,WSW,11.5,-,0.02,,Overcast,240,2012-10-27 21:35:00
2:55 PM,42.8,39.2,87,30.01,10.0,WSW,10.4,-,0.03,,Mostly Cloudy,250,2012-10-27 21:55:00
3:15 PM,42.8,39.2,87,30.01,9.0,WSW,9.2,-,0.01,,Overcast,240,2012-10-27 22:15:00
3:35 PM,42.8,39.2,87,30.01,9.0,WSW,5.8,-,0.03,,Overcast,250,2012-10-27 22:35:00
3:55 PM,42.8,39.2,87,30.00,9.0,West,5.8,-,0.04,,Overcast,260,2012-10-27 22:55:00
4:15 PM,42.8,39.2,87,30.00,8.0,SSW,6.9,-,N/A,,Overcast,210,2012-10-27 23:15:00
4:35 PM,42.8,39.2,87,30.00,9.0,WSW,5.8,-,N/A,,Overcast,250,2012-10-27 23:35:00
4:55 PM,42.8,39.2,87,29.99,8.0,SSW,3.5,-,N/A,,Overcast,210,2012-10-27 23:55:00
5:15 PM,41.0,39.2,93,29.98,10.0,South,8.1,-,N/A,,Overcast,170,2012-10-28 00:15:00
5:35 PM,41.0,37.4,87,29.98,10.0,South,6.9,-,N/A,,Overcast,180,2012-10-28 00:35:00
5:55 PM,41.0,37.4,87,29.97,10.0,South,6.9,-,N/A,,Overcast,180,2012-10-28 00:55:00
6:15 PM,41.0,37.4,87,29.97,10.0,South,8.1,-,N/A,,Overcast,170,2012-10-28 01:15:00
6:35 PM,41.0,39.2,93,29.96,10.0,South,5.8,-,N/A,,Overcast,170,2012-10-28 01:35:00
6:55 PM,41.0,37.4,87,29.97,10.0,SSW,8.1,-,N/A,,Overcast,200,2012-10-28 01:55:00
7:15 PM,41.0,37.4,87,29.98,9.0,South,8.1,-,N/A,,Overcast,180,2012-10-28 02:15:00
7:55 PM,39.2,37.4,93,29.96,10.0,South,6.9,-,N/A,,Overcast,190,2012-10-28 02:55:00
8:35 PM,39.2,37.4,93,29.92,10.0,South,9.2,-,N/A,,Overcast,180,2012-10-28 03:35:00
8:55 PM,39.2,37.4,93,29.91,10.0,South,5.8,-,N/A,,Overcast,170,2012-10-28 03:55:00
9:15 PM,39.2,37.4,93,29.92,10.0,South,5.8,-,0.01,,Overcast,180,2012-10-28 04:15:00
9:35 PM,39.2,37.4,93,29.92,10.0,South,4.6,-,0.02,,Overcast,180,2012-10-28 04:35:00
9:55 PM,39.2,37.4,93,29.91,10.0,SSE,5.8,-,0.04,,Overcast,160,2012-10-28 04:55:00
10:15 PM,39.2,37.4,93,29.92,9.0,South,3.5,-,0.01,,Overcast,170,2012-10-28 05:15:00
10:55 PM,39.2,37.4,93,29.91,5.0,South,5.8,-,0.03,,Overcast,170,2012-10-28 05:55:00
11:15 PM,39.2,37.4,93,29.89,7.0,South,6.9,-,0.02,,Overcast,170,2012-10-28 06:15:00
11:35 PM,39.2,39.2,100,29.88,7.0,South,6.9,-,0.02,,Overcast,170,2012-10-28 06:35:00
11:55 PM,39.2,39.2,100,29.87,10.0,South,6.9,-,0.03,,Overcast,180,2012-10-28 06:55:00